Regional Weather Roundup
Issued by NWS

Home | Current Version | Previous Version | Text Only | Print | Product List | Glossary On
Versions: 1 2 3 4 5 6 7 8 9 10 11 12 13 14 15 16 17 18 19 20 21 22 23 24 25 26 27 28 29 30 31 32 33 34 35 36 37 38 39 40 41 42 43 44 45 46 47 48 49 50
000
ASUS43 KMPX 201301
RWRMN
WEATHER ROUNDUP FOR MINNESOTA
NATIONAL WEATHER SERVICE TWIN CITIES/CHANHASSEN MN
700 AM CST MON FEB 20 2017


NOTE: "FAIR" INDICATES FEW OR NO CLOUDS BELOW 12,000 FEET WITH NO
SIGNIFICANT WEATHER AND/OR OBSTRUCTIONS TO VISIBILITY. N/A MEANS
CURRENT SKY AND/OR WEATHER CONDITIONS ARE NOT AVAILABLE.

MNZ060>063-068>070-201400-
   Twin Cities Metro

CITY           SKY/WX    TMP DP  RH WIND       PRES   REMARKS
TWIN CITIES    CLOUDY    51  43  74 VRB7      29.82F
ST PAUL        MOCLDY    49  43  80 SE13      29.83F
CRYSTAL        CLOUDY    63  42  46 SE12G21   29.80F
BLAINE         CLOUDY    52  45  76 SE12      29.81S
LAKEVILLE      CLOUDY    45  43  93 E5        29.82F
EDEN PRAIRIE   MOCLDY    50  43  77 SE9       29.80S
SOUTH ST PAUL  MOCLDY    49  42  77 SE5       29.83F
LAKE ELMO      FAIR      50  45  81 SE10      29.84F
$$
MNZ001>005-007-008-013>017-022>024-027-028-201400-
   Northwest Minnesota

CITY           SKY/WX    TMP DP  RH WIND       PRES   REMARKS
BEMIDJI        CLOUDY    40  37  89 E8        29.70S
HALLOCK        CLOUDY    37  36  93 S8        29.60R
ROSEAU         CLOUDY    41  37  87 SE10      29.64F
WARROAD        DRIZZLE   39  36  87 SE9       29.66F
THIEF RVR FALL LGT RAIN  44  43  96 S7        29.63R
CROOKSTON      LGT RAIN  45  45 100 S16       29.62R
FOSSTON        LGT RAIN  43  41  93 SW13G29   29.68R
DETROIT LAKES  CLOUDY    43  41  93 SE12      29.68S FOG
MOORHEAD       CLOUDY    48  46  93 S13       29.64R
PARK RAPIDS    CLOUDY    46  41  82 SE9       29.70R
MAHNOMEN       LGT RAIN  46  44  96 SE12      29.64R
$$
MNZ006-009>011-018-025>026-201400-
   North Central Minnesota

CITY           SKY/WX    TMP DP  RH WIND       PRES   REMARKS
BAUDETTE       CLOUDY    41  35  79 SE10      29.70R
FLAG ISLAND    LGT RAIN  37  34  87 SE13      29.68R
INTL FALLS     CLOUDY    43  35  73 SE12      29.76F
WASKISH        MOCLDY    43  39  87 SE10      29.70F
LONGVILLE      CLOUDY    43  37  81 SE8       29.75R
GRAND RAPIDS   CLOUDY    42  36  79 SE12      29.80S
CRANE LAKE     CLOUDY    43  36  75 SE5       29.83R
ORR            CLOUDY    43  34  70 SE8       29.77S
COOK           CLOUDY    45  36  70 SE3       29.81R
WALKER         CLOUDY    44  39  82 SE8       29.73R
$$
MNZ012-019>021-037-201400-
   Northeast Minnesota

CITY           SKY/WX    TMP DP  RH WIND       PRES   REMARKS
DULUTH         CLOUDY    40  33  76 SE16      29.86F
ELY            CLOUDY    39  32  75 SE9G16    29.86F
HIBBING        CLOUDY    40  34  79 SE13      29.81S
EVELETH        CLOUDY    43  32  64 SE7       29.85S
DULUTH HARBOR  CLOUDY    36  34  93 NE17      29.91S
TWO HARBORS    CLOUDY    43  34  70 E12       29.88F
GRAND MARAIS     N/A     39  32  76 NE16G22   30.01F
G MARAIS ARPRT CLOUDY    34  27  75 E9        29.98F WCI  26
$$
MNZ029>031-032-039>041-046>048-054>057-064-201400-
   West Central Minnesota

CITY           SKY/WX    TMP DP  RH WIND       PRES   REMARKS
FERGUS FALLS   CLOUDY    48  48 100 SE12      29.67F
WHEATON        CLOUDY    48  46  93 SE16      29.65S
MORRIS         CLOUDY    48  48 100 SE16      29.66S FOG
ALEXANDRIA     CLOUDY    51  48  89 S20       29.70S
ELBOW LAKE     MOCLDY    48  47  97 S20       29.67S
WADENA         CLOUDY    45  43  93 SE10      29.68F
GLENWOOD       CLOUDY    50  48  93 S18       29.71S
APPLETON       CLOUDY    52  48  87 SE8       29.66F
BENSON         CLOUDY    54  46  76 S12G17    29.70F
ORTONVILLE     CLOUDY    48  45  87 SE9       29.65S FOG
WILLMAR        FAIR      50  48  93 MISG      29.74F
$$
MNZ033>034-036-042>043-049>051-058-059-201400-
   Central Minnesota

CITY           SKY/WX    TMP DP  RH WIND       PRES   REMARKS
ST CLOUD       MOCLDY    48  44  86 SE8       29.76S
SAUK CENTRE    CLOUDY    46  45  95 SE10      29.72F
PAYNESVILLE    CLOUDY    50  46  87 S8        29.74F
AITKIN         CLOUDY    45  36  70 SE8       29.77S
PINE RIVER     CLOUDY    43  39  87 SE7       29.78S
BRAINERD       CLOUDY    45  40  82 SE9       29.76S
STAPLES        CLOUDY    46  43  87 SE6       29.72S
LONG PRAIRIE   CLOUDY    45  45 100 E10       29.73F
LITTLE FALLS   CLOUDY    46  43  87 SE8       29.76F
LITCHFIELD     CLOUDY    52  46  82 SE8       29.76F
BUFFALO        MOCLDY    51  44  77 SE10      29.79S
MAPLE LAKE     CLOUDY    50  46  85 SE9       29.78F
HUTCHINSON     CLOUDY    50  46  87 SE8       29.78S
$$
MNZ037-044-045-052-053-201400-
   East Central Minnesota

CITY           SKY/WX    TMP DP  RH WIND       PRES   REMARKS
PRINCETON      CLOUDY    52  45  76 SE9       29.79R
MORA           CLOUDY    45  39  81 SE5       29.83R
CAMBRIDGE      CLOUDY    54  43  66 SE8       29.78S
RUSH CITY      CLOUDY    48  41  76 SE13G18   29.82S
MOOSE LAKE     CLOUDY    36  32  87 NE3       29.82F
HINCKLEY       FAIR      46  41  81 E3        29.82S
CLOQUET        CLOUDY    37  32  81 SE6       29.85S
MCGREGOR       CLOUDY    39  34  81 E8        29.81F
$$
MNZ071>073-080-081-089-090-097-098-201400-
   Southwest Minnesota

CITY           SKY/WX    TMP DP  RH WIND       PRES   REMARKS
MONTEVIDEO     CLOUDY    52  48  87 S14       29.70F
GRANITE FALLS  CLOUDY    51  48  89 SE15      29.71F
CANBY          CLOUDY    58  54  84 SW22G30   29.66R
MARSHALL       CLOUDY    56  53  90 SW24G31   29.66F
REDWOOD FALLS  CLOUDY    49  45  86 SE14      29.72F
OLIVIA         CLOUDY    50  45  81 SE15G22   29.73F
PIPESTONE      LGT RAIN  54  48  82 S14       29.70S
WINDOM         CLOUDY    52  46  82 S16       29.73F
WORTHINGTON    RAIN      52  51  97 S21       29.73F FOG
JACKSON        CLOUDY    50  45  81 S14G23    29.75F
TRACY          CLOUDY    52  50  93 S14G22    29.70S
SLAYTON        LGT RAIN  54  53  95 S14       29.73S
$$
MNZ065>067-074>077-082>085-091>093-201400-
   South Central Minnesota

CITY           SKY/WX    TMP DP  RH WIND       PRES   REMARKS
MANKATO          N/A     50  45  83 SE16      29.80F
NEW ULM        CLOUDY    48  45  87 SE7       29.77F
ST JAMES       CLOUDY    50  46  87 SE14      29.77F
FAIRMONT       CLOUDY    51  47  86 S17       29.78F
GLENCOE        CLOUDY    51  48  88 S7        29.78S
FARIBAULT      CLOUDY    52  46  82 SE10      29.85S
OWATONNA       CLOUDY    50  45  81 SE18G24   29.84F
WASECA         CLOUDY    50  45  81 SE14      29.84S
ALBERT LEA     CLOUDY    48  45  87 S10       29.86S
$$
MNZ078>079-086>088-094>096-201400-
   Southeast Minnesota

CITY           SKY/WX    TMP DP  RH WIND       PRES   REMARKS
ROCHESTER      CLOUDY    47  45  93 SE15      29.89F
RED WING       MOCLDY    54  45  71 SE9       29.86F
STANTON        CLOUDY    51  45  79 S12       29.82F
WINONA         MOCLDY    46  41  81 CALM      29.93F
AUSTIN         CLOUDY    48  45  87 S8        29.88R
PRESTON        CLOUDY    47  44  87 SE9       29.91F
$$
ABBREVIATIONS USED IN REMARKS
   TC - TEMPERATURES IN CELSIUS
  WCI - WIND CHILL INDEX
   HX - HEAT INDEX
  VSB - VISIBILITY
$$




USA.gov is the U.S. government's official web portal to all federal, state and local government web resources and services.